Lid_Strength_Index
2 1 1 1 2 1 2 2 2 2 1 1 2 3 4 4 4 5 6 6 6 5 5 5 4 4 4 4 5 5 4 4 6 6 5 6 6 6 5 5 4 3 1
2 2 2 1 1 1 2 1 1 1 1 1 2 3 4 5 5 6 7 7 6 5 4 4 4 3 5 5 5 5 5 5 6 7 6 6 6 5 6 6 5 2 1
2 2 2 2 2 1 2 2 1 1 1 2 3 4 5 5 5 6 6 7 6 4 4 4 5 5 5 5 5 5 5 5 6 5 6 6 6 6 7 6 6 6 1
2 2 2 2 2 1 1 2 2 1 2 3 3 4 5 5 6 7 7 7 6 5 4 4 4 5 5 5 5 6 6 6 6 6 7 8 7 7 7 7 7 7 6
2 2 2 2 1 1 2 2 2 2 2 3 4 5 5 6 6 7 8 7 6 6 5 4 5 5 2 4 5 6 7 8 8 8 8 8 9 9 9 8 8 8 7
2 2 2 2 2 2 2 2 2 3 3 4 4 5 6 5 5 5 6 6 6 6 7 7 5 2 2 2 2 3 5 7 8 8 9 10 10 10 9 9 9 10 9
2 2 2 2 2 2 2 3 3 4 4 4 4 5 5 6 6 5 4 6 6 7 8 8 6 6 6 6 3 2 3 3 6 9 10 10 9 9 8 9 9 10 9
3 3 2 2 2 2 2 3 3 4 4 4 5 5 5 5 6 4 3 7 7 8 9 9 8 9 10 9 9 9 8 8 6 7 9 9 9 8 8 8 8 9 8
3 3 2 2 2 2 3 3 3 4 4 4 5 5 5 5 6 5 5 7 7 8 10 9 8 8 7 5 8 7 7 6 4 4 5 5 4 4 5 8 9 9 10
3 2 2 2 2 2 2 3 3 4 5 5 5 6 5 6 6 5 5 6 7 8 8 8 4 6 5 4 8 7 8 8 8 9 9 7 6 6 2 7 8 8 9
2 2 2 2 2 2 2 3 4 4 5 6 5 7 6 7 6 5 5 6 6 7 7 8 7 4 5 5 6 7 7 7 6 8 8 8 8 7 7 6 6 6 7
3 3 3 3 3 3 3 3 4 4 5 6 6 7 7 6 5 6 6 6 6 7 7 7 7 5 6 6 7 6 6 5 8 8 9 9 9 8 7 5 5 5 5
4 4 3 3 3 2 2 4 5 5 5 5 6 7 7 6 7 6 6 6 6 7 7 6 6 7 6 6 6 6 5 7 9 9 9 9 8 7 6 4 3 4 5
3 4 3 3 4 3 4 4 5 6 5 4 3 5 6 7 7 6 7 5 5 5 5 7 6 6 5 6 7 5 7 9 9 9 9 9 7 6 5 4 4 4 4
3 3 3 3 4 3 4 5 5 4 5 5 5 4 6 6 6 7 6 6 5 6 8 9 9 8 8 8 9 8 8 9 8 8 9 8 7 6 5 4 4 5 4
3 3 3 3 5 5 5 7 10 9 10 11 10 7 5 7 10 10 11 10 10 9 9 9 9 9 7 7 8 8 9 8 8 6 7 6 5 5 5 5 4 4 5
3 3 3 5 5 6 6 6 8 9 12 12 11 10 9 9 10 11 12 12 11 10 8 8 8 8 7 8 8 8 9 8 7 6 5 4 4 4 4 5 5 5 6
2 6 3 4 4 5 6 7 6 8 8 8 11 9 10 11 12 12 13 12 12 10 8 8 8 7 7 8 7 7 7 7 6 5 3 3 3 3 4 5 4 5 5
2 2 3 4 4 5 6 6 6 7 7 8 10 12 9 11 12 13 12 8 10 10 9 10 8 7 7 7 6 6 5 5 4 4 4 4 3 3 4 4 4 5 5
2 3 3 4 4 4 5 7 7 7 7 8 8 8 11 10 9 10 10 7 8 9 8 9 7 7 6 6 6 6 6 6 5 4 3 3 3 4 4 3 3 4 5
2 2 3 3 3 3 3 5 6 6 7 6 6 8 10 8 7 7 8 8 7 7 7 7 6 6 6 6 6 6 6 5 4 3 2 3 3 5 4 4 5 4 4
2 3 4 3 3 3 3 3 5 6 6 7 8 8 11 6 6 7 7 7 6 5 5 5 5 5 5 5 5 4 4 3 2 3 3 4 5 5 5 5 5 5 5
2 3 3 3 3 3 3 3 4 5 6 6 5 6 8 8 7 7 6 6 6 5 4 5 5 6 6 5 3 2 2 2 2 3 4 5 5 6 6 7 6 6 6
3 4 3 3 3 3 3 3 3 6 5 5 5 7 7 6 5 5 4 4 4 4 4 5 5 4 3 2 2 2 2 2 3 4 4 5 6 8 7 7 7 7 7
2 2 3 3 3 3 3 3 4 4 4 5 6 6 6 6 5 5 5 4 4 4 5 4 3 2 3 3 2 2 4 9 6 7 6 7 7 7 7 7 8 8 8
2 2 3 3 3 3 3 4 5 5 5 5 5 5 5 5 4 5 5 5 4 3 2 2 2 2 2 2 1 5 12 12 8 10 6 6 6 7 8 7 8 8 8